Regional Weather Roundup
Issued by NWS Sterling, VA

Home | Current Version | Previous Version | Graphics & Text | Print | Product List | Glossary On
Versions: 1 2 3 4 5 6 7 8 9 10 11 12 13 14 15 16 17 18 19 20 21 22 23 24 25 26 27 28 29 30 31 32 33 34 35 36 37 38 39 40 41 42 43 44 45 46 47 48 49 50
000
ASUS41 KLWX 261110
RWRLWX

REGIONAL WEATHER ROUNDUP
NATIONAL WEATHER SERVICE BALTIMORE MD/WASHINGTON DC
600 AM EST MON JAN 26 2015

Note: "FAIR" indicates few or no clouds below 12,000 feet
with no significant weather and/or obstructions to visibility.
 TC=TEMPERATURE CELSIUS

 * =Non NWS site. Station does not report precipitation (e.g. rain,
    snow, etc.), thunder, or fog.

DCZ001-MDZ009-015-VAZ040>042-051-053>054-261200-
WASHINGTON METRO

CITY           SKY/WX    TMP DP  RH WIND       PRES   REMARKS
WASHINGTON NAT LGT RAIN  40  34  79 NE15      29.79F
DULLES         LGT RAIN  37  35  92 E14       29.76S FOG     WCI  28
ANDREWS AFB    LGT RAIN  37  36  95 E10       29.78S
FT BELVOIR     LGT RAIN  39  37  93 VRB5      29.78F
QUANTICO       LGT RAIN  39  36  89 NE10      29.78F
COLLEGE PARK*  CLOUDY    36  34  93 NE7       29.81S
LEESBURG*      LGT RAIN  37  37 100 E8        29.78S
MANASSAS*      CLOUDY    39  39 100 E3        29.77S
GAITHERSBURG*  CLOUDY    34  28  80 E14G20    29.82S WCI  24

$$

MDZ006>007-011-014-261200-
BALTIMORE METRO

CITY           SKY/WX    TMP DP  RH WIND       PRES   REMARKS
BWI AIRPORT    LGT SNOW  32  29  88 NE15      29.83S FOG     WCI  22
MD SCIENCE CTR   N/A     32  28  85 MISG      29.84S
MARTIN STATE   PTCLDY    34  28  80 NE9G17    29.86F WCI  26
ANNAPOLIS      CLOUDY    37  29  72 E17G23    29.82F WCI  27
FORT MEADE*    CLOUDY    32  30  93 E10G17    29.84S WCI  24

$$

MDZ012-015-019>023-261200-
MARYLAND EASTERN SHORE

CITY           SKY/WX    TMP DP  RH WIND       PRES   REMARKS
OCEAN CITY     CLOUDY    41  38  89 NE12      29.81F
SALISBURY      CLOUDY    42  36  79 NE12      29.81S
BAY BRIDGE AP*   N/A     36  30  80 E16       29.82F WCI  26
CAMBRIDGE*     CLOUDY    41  36  81 E10       29.80F
EASTON*        LGT RAIN  37  32  81 E10G25    29.86S

$$

MDZ017>025-261200-
SOUTHERN MARYLAND

CITY           SKY/WX    TMP DP  RH WIND       PRES   REMARKS
PATUXENT RIVER LGT RAIN  40  35  83 E6        29.78F
ST INIGOES     LGT RAIN  41  34  76 E6        29.77F
LEONARDTOWN*   CLOUDY    37  36  93 E5        29.79R

$$

MDZ003>005-261200-
NORTH CENTRAL MARYLAND

CITY           SKY/WX    TMP DP  RH WIND       PRES   REMARKS
FREDERICK*     NOT AVBL
HAGERSTOWN APT LGT SNOW  31  28  89 NE10      29.77F FOG     WCI  22
WESTMINSTER*   LGT SNOW  30  28  93 E8G17     29.79S WCI  23

$$

MDZ501>502-261200-
WESTERN MARYLAND

CITY           SKY/WX    TMP DP  RH WIND       PRES   REMARKS
OAKLAND*       CLOUDY    28 N/A N/A SE9       29.60F FOG     WCI  20
CUMBERLAND*      N/A     34  32  93 N5        29.79

$$

VAZ025>031-261200-
SHENANDOAH VALLEY

CITY           SKY/WX    TMP DP  RH WIND       PRES   REMARKS
WINCHESTER*    MIX PCPN  34  32  93 NE5       29.74F
FRONT ROYAL*   CLOUDY    36  34  93 NE5       29.72S
LURAY*         LGT RAIN  37  37 100 N8        29.70F
NEW MARKET*    CLOUDY    34  33  96 N7        29.70S
STAUNTON*      LGT RAIN  36  34  92 CALM      29.69F
WAYNESBORO*    CLOUDY    36  34  94 E5        29.66F

$$

WVZ021-048>050-054>055-261200-
EASTERN WEST VIRGINIA PANHANDLE

CITY           SKY/WX    TMP DP  RH WIND       PRES   REMARKS
MARTINSBURG    LGT SNOW  32  29  88 N8        29.77S VSB 1   WCI  25
PETERSBURG*    LGT SNOW  34  34 100 CALM      29.72S

$$

VAZ036>039-050-261200-
CENTRAL FOOTHILLS

CITY           SKY/WX    TMP DP  RH WIND       PRES   REMARKS
CHARLOTTESVILL LGT RAIN  37  35  92 NE8       29.71S
CULPEPER*      LGT RAIN  39  37  93 CALM      29.75F
ORANGE*        LGT RAIN  37  36  93 CALM      29.75S
GORDONSVILLE*  CLOUDY    36  35  99 NE3       29.72S FOG
WARRENTON*     LGT RAIN  39  39 100 NE3       29.75S

$$

VAZ055>057-261200-
NORTH AND CENTRAL PIEDMONT

CITY           SKY/WX    TMP DP  RH WIND       PRES   REMARKS
FREDERICKSBRG* RAIN      39  39 100 CALM      29.76S
STAFFORD*      RAIN      38  32  79 CALM      29.80S

$$

NCZ024-NYZ072-PAZ021-071-VAZ022-071-261200-
OTHER REGIONAL OBSERVATIONS

CITY           SKY/WX    TMP DP  RH WIND       PRES   REMARKS
NEW YORK CITY  CLOUDY    24   9  52 NE13G20   30.02F WCI  12
PHILADELPHIA   FLURRIES  31  23  72 NE12G22   29.92F WCI  22
PITTSBURGH     FLURRIES  29  27  92 NE8       29.67F WCI  21
ROANOKE        MOCLDY    35  31  85 CALM      29.68S
RICHMOND       LGT RAIN  40  38  93 CALM      29.74F
RALEIGH        LGT RAIN  40  35  83 CALM      29.69F

$$

ANZ530>537-261200-
MARINE OBSERVATIONS

STATION/POSITION TIME  TEMP    WIND        PRES
                       AIR SEA DIR/SP/G
                 (UTC) (F)     (DEG/KT/KT) (MB)
THOMAS PT LIGHT  1100   36 37   80/ 21/ 23 1010.4F
BALT KEY BRIDGE  1100   33      60/ 16/ 19 1010.3S
COVE POINT       1100   38      90/ 10/ 11 1008.3R
LEWISETTA        1100          100/  4/  5   N/A
SOLOMONS ISLAND  1100      38                N/A
PINEY POINT      1100          100/  6/  7   N/A

$$



USA.gov is the U.S. government's official web portal to all federal, state and local government web resources and services.